This demonstration page uses our WeatherBlox Daily Observations layout. Learn more.

Left ArrowRight Arrow

Hourly Observations for November 27, 2016

Temp ( °F °C ) Dew Point ( °F °C ) Humidity (%) Winds ( mph kmh ) Pressure ( in mb ) Visibility ( mi km ) Precip ( " mm )
12:59 am 00:59 Clear 43 6.1 31 -0.6 63 63 NW 12 19 30.22 1023 10 16 0.00 0.00
1:59 am 01:59 Clear 43 6.1 31 -0.6 63 63 NW 12 19 30.22 1023 10 16 0.00 0.00
2:59 am 02:59 Clear 42 5.6 30 -1.1 62 62 NW 10 17 30.23 1024 10 16 0.00 0.00
3:59 am 03:59 Clear 41 5 30 -1.1 65 65 NW 9 15 30.22 1024 10 16 0.00 0.00
4:59 am 04:59 Clear 41 5 30 -1.1 65 65 NNW 14 22 30.23 1024 10 16 0.00 0.00
5:59 am 05:59 Clear 42 5.6 30 -1.1 62 62 NNW 14 22 30.25 1024 10 16 0.00 0.00
6:59 am 06:59 Sunny 42 5.6 29 -1.7 60 60 NNW 15 24 30.26 1025 10 16 0.00 0.00
7:59 am 07:59 Sunny 44 6.7 31 -0.6 60 60 NNW 12 19 30.27 1025 10 16 0.00 0.00
8:59 am 08:59 Sunny 47 8.3 30 -1.1 52 52 NNW 14 22 30.28 1025 10 16 0.00 0.00
9:59 am 09:59 Sunny 50 10 30 -1.1 46 46 NNW 15 24 30.28 1025 10 16 0.00 0.00
10:59 am 10:59 Sunny 52 11.1 28 -2.2 40 40 NNW 12 19 30.27 1025 10 16 0.00 0.00
11:59 am 11:59 Sunny 51 10.6 31 -0.6 46 46 NW 7 11 30.25 1024 10 16 0.00 0.00
12:59 pm 12:59 Sunny 51 10.6 29 -1.7 43 43 W 8 13 30.23 1024 10 16 0.00 0.00
1:59 pm 13:59 Sunny 51 10.6 26 -3.3 38 38 W 12 19 30.21 1023 10 16 0.00 0.00
2:59 pm 14:59 Sunny 51 10.6 26 -3.3 38 38 W 10 17 30.19 1022 10 16 0.00 0.00
3:59 pm 15:59 Sunny 51 10.6 27 -2.8 39 39 W 8 13 30.20 1023 10 16 0.00 0.00
4:59 pm 16:59 Mostly Clear 49 9.4 28 -2.2 44 44 W 6 9 30.22 1023 10 16 0.00 0.00
5:59 pm 17:59 Mostly Clear 42 5.6 33 0.6 71 71 Calm 30.22 1024 10 16 0.00 0.00
6:59 pm 18:59 Clear 39 3.9 33 0.6 79 79 Calm 30.23 1024 10 16 0.00 0.00
7:59 pm 19:59 Clear 38 3.3 33 0.6 83 83 Calm 30.23 1024 10 16 0.00 0.00
8:59 pm 20:59 Mostly Clear 37 2.8 33 0.6 86 86 Calm 30.23 1024 10 16 0.00 0.00
9:59 pm 21:59 Partly Cloudy 37 2.8 33 0.6 86 86 Calm 30.23 1024 9 14 0.00 0.00
10:59 pm 22:59 Mostly Cloudy 37 2.8 34 1.1 89 89 Calm 30.23 1024 8 13 0.00 0.00
11:59 pm 23:59 Partly Cloudy 36 2.2 33 0.6 89 89 Calm 30.24 1024 7 11 0.00 0.00

Powered by AerisWeather